FW1382 Weather Reports


time (UTC)temp
F
wind
direction
speed
knots
gust
knots
rain 1hr
in
rain 24hr
in
rain mn
in
humidity
%
barometer
mb
20260506014522 78 314 7.0 11.3 0.00 0.00 0.00 67 1004.7
20260506013024 80 299 3.5 9.6 0.00 0.00 0.00 67 1004.0
20260506011529 82 355 6.1 14.8 0.00 0.00 0.00 67 1003.9
20260506010044 83 237 3.5 13.9 0.00 0.00 0.00 74 1003.6
20260506004535 84 158 7.8 13.0 0.00 0.00 0.00 72 1003.0
20260506003048 87 165 7.0 9.6 0.00 0.00 0.00 67 1002.9
20260506001604 90 169 7.8 11.3 0.00 0.00 0.00 61 1003.0
20260506000054 92 193 2.6 5.2 0.00 0.00 0.00 48 1002.9
20260505234616 92 232 1.7 6.1 0.00 0.00 0.00 48 1002.9
20260505233009 92 180 2.6 5.2 0.00 0.00 0.00 47 1002.8
20260505231526 92 236 3.5 8.7 0.00 0.00 0.00 46 1002.9
20260505230030 92 244 2.6 7.8 0.00 0.00 0.00 49 1002.9
20260505224552 91 215 4.3 8.7 0.00 0.00 0.00 51 1002.9
20260505223117 91 217 4.3 8.7 0.00 0.00 0.00 50 1002.8
20260505221502 91 237 6.1 10.4 0.00 0.00 0.00 51 1002.9
20260505220008 91 222 6.1 9.6 0.00 0.00 0.00 51 1002.9
20260505214516 91 222 4.3 8.7 0.00 0.00 0.00 52 1003.0
20260505213031 90 219 5.2 7.8 0.00 0.00 0.00 51 1002.9
20260505211541 90 211 7.8 10.4 0.00 0.00 0.00 52 1002.9
20260505210045 90 201 6.1 12.2 0.00 0.00 0.00 53 1003.3
20260505204609 90 190 6.1 10.4 0.00 0.00 0.00 54 1003.6
20260505203132 90 213 6.1 11.3 0.00 0.00 0.00 56 1003.5
20260505201508 89 211 7.0 11.3 0.00 0.00 0.00 57 1004.0
20260505200027 89 244 7.0 14.8 0.00 0.00 0.00 57 1004.2
20260505194550 88 236 7.8 14.8 0.00 0.00 0.00 57 1004.3
20260505193054 88 209 8.7 15.6 0.00 0.00 0.00 59 1004.3
20260505191605 88 204 8.7 11.3 0.00 0.00 0.00 62 1004.5
20260505190011 87 241 7.0 15.6 0.00 0.00 0.00 63 1004.5
20260505184534 87 203 8.7 15.6 0.00 0.00 0.00 66 1004.7
20260505183048 86 221 7.0 16.5 0.00 0.00 0.00 64 1004.9
20260505181600 85 184 9.6 15.6 0.00 0.00 0.00 65 1005.0
20260505180114 84 221 8.7 13.0 0.00 0.00 0.00 67 1005.1
20260505174506 84 198 8.7 16.5 0.00 0.00 0.00 69 1005.5
20260505173025 83 235 13.0 18.2 0.00 0.00 0.00 68 1005.4
20260505170011 81 169 9.6 13.9 0.00 0.00 0.00 72 1005.4
20260505164535 80 209 9.6 13.9 0.00 0.00 0.00 74 1005.8
20260505163051 79 233 7.8 15.6 0.00 0.00 0.00 74 1005.7
20260505161559 79 185 9.6 18.2 0.00 0.00 0.00 75 1005.5
20260505160118 78 211 12.2 17.4 0.00 0.00 0.00 76 1005.7
20260505153052 77 240 8.7 17.4 0.00 0.00 0.00 77 1005.8
20260505151505 76 240 10.4 20.0 0.00 0.00 0.00 79 1005.9
20260505124512 70 187 5.2 11.3 0.00 0.00 0.00 88 1004.9
20260505123021 69 223 6.1 10.4 0.00 0.00 0.00 89 1004.8
20260505121546 69 202 6.1 13.9 0.00 0.00 0.00 89 1004.5
20260505120117 69 192 8.7 13.0 0.00 0.00 0.00 89 1004.3
20260505114502 69 187 7.8 18.2 0.00 0.00 0.00 89 1004.0
20260505113009 69 206 8.7 14.8 0.00 0.00 0.00 88 1003.9
20260505111532 69 229 9.6 13.9 0.00 0.00 0.00 88 1004.2
20260505101536 70 213 12.2 17.4 0.00 0.00 0.00 88 1003.8
20260505100025 70 211 9.6 20.0 0.00 0.00 0.00 87 1003.9
20260505094526 70 225 9.6 20.0 0.00 0.00 0.00 87 1004.0
20260505093032 70 198 11.3 20.9 0.00 0.00 0.00 87 1004.2
20260505091521 70 216 9.6 16.5 0.00 0.00 0.00 87 1004.2
20260505090032 70 195 10.4 21.7 0.00 0.00 0.00 87 1004.1
20260505084548 70 212 11.3 16.5 0.00 0.00 0.00 87 1004.4
20260505083108 70 211 10.4 18.2 0.00 0.00 0.00 87 1004.5
20260505081603 70 202 9.6 15.6 0.00 0.00 0.00 86 1004.4
20260505080021 70 205 9.6 18.2 0.00 0.00 0.00 86 1004.5
20260505074518 70 198 8.7 17.4 0.00 0.00 0.00 85 1004.8
20260505073023 70 178 9.6 14.8 0.00 0.00 0.00 84 1005.4
20260505071548 71 207 9.6 15.6 0.00 0.00 0.00 83 1005.5
20260505070105 71 198 8.7 14.8 0.00 0.00 0.00 82 1005.7
20260505064513 71 215 9.6 16.5 0.00 0.00 0.00 81 1005.9
20260505063037 72 194 10.4 17.4 0.00 0.00 0.00 80 1006.0
20260505061616 73 198 12.2 20.9 0.00 0.00 0.00 79 1006.0
20260505060004 73 196 11.3 16.5 0.00 0.00 0.00 78 1005.9
20260505054519 73 217 11.3 20.9 0.00 0.00 0.00 77 1006.2
20260505053029 73 171 9.6 19.1 0.00 0.00 0.00 76 1006.2
20260505051556 74 188 10.4 17.4 0.00 0.00 0.00 75 1006.1
20260505041519 75 185 11.3 20.0 0.00 0.00 0.00 73 1006.3
20260505040028 75 209 10.4 19.1 0.00 0.00 0.00 73 1006.4
20260505034535 75 172 9.6 17.4 0.00 0.00 0.00 73 1006.3
20260505033030 75 175 10.4 15.6 0.00 0.00 0.00 73 1006.3
20260505031540 75 195 8.7 14.8 0.00 0.00 0.00 74 1006.1
20260505030045 75 175 8.7 12.2 0.00 0.00 0.00 74 1006.4
20260505024550 75 196 8.7 12.2 0.00 0.00 0.00 73 1006.2
20260505023058 76 199 7.0 13.0 0.00 0.00 0.00 73 1006.4
20260505021606 76 180 8.7 13.0 0.00 0.00 0.00 72 1006.1
20260505020105 77 178 8.7 18.2 0.00 0.00 0.00 71 1005.7